Weather History for Palmdale, CA

Change the Weather History Date:

Sunday, May 22, 2011

  Actual Average Record
Temperature  
Mean Temperature 65 °F 69 °F  
Max Temperature 78 °F 85 °F 103 °F (2000)
Min Temperature 52 °F 54 °F 38 °F (1933)
Degree Days  
Heating Degree Days 0 2  
Month to date heating degree days 100 58  
Since 1 July heating degree days 2971 2908  
Cooling Degree Days 0 6  
Month to date cooling degree days 40 85  
Year to date cooling degree days 46 108  
Growing Degree Days 16 (Base 50)    
Moisture  
Dew Point 45 °F    
Average Humidity 49    
Maximum Humidity 66    
Minimum Humidity 31    
Precipitation  
Precipitation 0.00 in 0.01 in 0.96 in (2014)
Month to date precipitation 0.01 0.22  
Year to date precipitation 2.35 5.20  
Since 1 July precipitation 7.73 8.18  
Snow  
Snow 0.00 in - - ()
Month to date snowfall 0.0  
Since 1 July snowfall 0.0  
Snow Depth 0.00 in    
Sea Level Pressure  
Sea Level Pressure 29.82 in    
Wind  
Wind Speed 14 mph (SW)    
Max Wind Speed 26 mph    
Max Gust Speed 32 mph    
Visibility 10 miles    
Events      
T = Trace of Precipitation, MM = Missing Value Source: NWS Daily Summary

Daily Weather History Graph

Daily Weather History Graph

Search for Another Location

Airport:

Trip Planner

Search our weather history database for the weather conditions in past years. The results will help you decide how hot, cold, wet, or windy it might be!

Date:

Astronomy

May. 22, 2011 Rise Set
Actual Time 5:45 AM PDT 7:53 PM PDT
Civil Twilight 5:16 AM PDT 8:21 PM PDT
Nautical Twilight 4:42 AM PDT 8:56 PM PDT
Astronomical Twilight 4:04 AM PDT 9:33 PM PDT
Moon No Moon Rise 10:48 AM PDT (5/22)
Length of Visible Light 15h 05m
Length of Day
14h 08m
Waning Gibbous, 69% of the Moon is Illuminated
May 22
Waning Gibbous
May 24
Last Quarter
Jun 1
New
Jun 8
First Quarter
Jun 15
Full

Hourly Weather History & Observations

Time (PDT) Temp. Dew Point Humidity Pressure Visibility Wind Dir Wind Speed Gust Speed Precip Events Conditions
12:53 AM 64.0 °F 42.1 °F 45% 29.83 in 10.0 mi WSW 10.4 mph - N/A   Clear
1:53 AM 62.1 °F 43.0 °F 50% 29.82 in 10.0 mi WSW 5.8 mph - N/A   Clear
2:53 AM 60.1 °F 42.1 °F 51% 29.82 in 10.0 mi WSW 9.2 mph - N/A   Clear
3:53 AM 57.0 °F 44.1 °F 62% 29.82 in 10.0 mi SSW 6.9 mph - N/A   Clear
4:53 AM 55.9 °F 43.0 °F 62% 29.82 in 10.0 mi SSW 5.8 mph - N/A   Clear
5:53 AM 54.0 °F 43.0 °F 66% 29.83 in 10.0 mi South 3.5 mph - N/A   Clear
6:53 AM 59.0 °F 45.0 °F 60% 29.84 in 10.0 mi NNW 3.5 mph - N/A   Clear
7:53 AM 64.9 °F 43.0 °F 45% 29.84 in 10.0 mi SW 6.9 mph - N/A   Clear
8:53 AM 69.1 °F 39.9 °F 35% 29.83 in 10.0 mi SW 9.2 mph - N/A   Clear
9:53 AM 72.0 °F 42.1 °F 34% 29.82 in 10.0 mi WSW 11.5 mph - N/A   Clear
10:53 AM 73.9 °F 42.1 °F 32% 29.82 in 10.0 mi West 17.3 mph 23.0 mph N/A   Clear
11:53 AM 73.9 °F 45.0 °F 35% 29.82 in 10.0 mi WSW 21.9 mph 28.8 mph N/A   Clear
12:53 PM 75.0 °F 42.1 °F 31% 29.82 in 10.0 mi WSW 17.3 mph 28.8 mph N/A   Clear
1:53 PM 77.0 °F 45.0 °F 32% 29.81 in 10.0 mi WSW 18.4 mph 27.6 mph N/A   Clear
2:53 PM 77.0 °F 44.1 °F 31% 29.80 in 10.0 mi SW 19.6 mph 26.5 mph N/A   Clear
3:53 PM 75.9 °F 46.0 °F 35% 29.79 in 10.0 mi WSW 19.6 mph 28.8 mph N/A   Clear
4:53 PM 72.0 °F 50.0 °F 46% 29.79 in 10.0 mi SW 21.9 mph - N/A   Clear
5:53 PM 70.0 °F 50.0 °F 49% 29.79 in 10.0 mi WSW 19.6 mph - N/A   Clear
6:53 PM 66.0 °F 50.0 °F 56% 29.79 in 10.0 mi SW 20.7 mph 28.8 mph N/A   Clear
7:53 PM 62.1 °F 50.0 °F 65% 29.81 in 10.0 mi SW 18.4 mph - N/A   Clear
8:53 PM 60.1 °F 48.9 °F 67% 29.82 in 10.0 mi SW 17.3 mph 23.0 mph N/A   Clear
9:53 PM 59.0 °F 46.0 °F 62% 29.83 in 10.0 mi SW 17.3 mph - N/A   Clear
10:53 PM 57.9 °F 45.0 °F 62% 29.84 in 10.0 mi WSW 15.0 mph - N/A   Clear
11:53 PM 57.0 °F 44.1 °F 62% 29.83 in 10.0 mi WSW 20.7 mph - N/A   Clear